Showing default

BRO-14, 60551

Orbit data source: Space-Track

BRO-14, 60551 is a payload satellite owned by Unseen Labs (FR) in SSO that was launched on Fri, 16 Aug 2024 UTC via an FALCON 9 launch vehicle from the Air Force Western Test Range (AFWTR). Payload-class satellites include a variety of spacecraft equipped with specific instruments for various scientific and technological missions. These include communications satellites like Starlink; space stations such as the ISS; scientific satellites like the Hubble; Earth observation satellites from companies like Planet Labs, Umbra, and HawkEye 360; GPS; miniature CubeSats for education and research; and military/defense satellites.

Loading next visibility...
Identifier
60551, 2024-149CM
Orbit
SSO
Country
Flag of FRFR
Related business
Manufacturer
GOMSpace
Mission
Operational Commercial Sigint
Bus & Motor
CUBESAT 8U, Unknown motor
Mass
15 kg wet, ~15 kg dry
Launch date (UTC)
2024-08-16 (2 years ago)
Launch vehicle
FALCON 9
Launch site
Air Force Western Test Range (AFWTR)
Object type
Payload
Rocket body
Debris
Shape & HBR
Box, 0.2 m
Radar Cross Section
0.100 m², Medium (>0.1 m² and < 1m²)

Expand to show TLE details & history
Last TLE update: 8 hours ago

TLE from 8 hours ago
0 BRO-14
1 60551U 24149CM  26126.72939080  .00000450  00000-0  45089-4 0  9991
2 60551  97.6878 203.2524 0005633 228.3128 131.7612 14.96099028 93792
Epoch: 2026-05-06T17:30Z
TLE epoch observation values (Epoch: 2026-05-06T17:30:19.365Z)
Latitude
0.00002°
Longitude
76.08601°
Altitude
584.625 km
Speed
7.567 km/s
True Right ascension
13h 33m 00s
True Declination
0° 00' 00"
Sunlit
Object was in full shadow at epoch
Visualization orbit readout
Latitude
Unknown
Longitude
Unknown
Altitude
Unknown
Speed
Unknown
Apparent Right ascension
Unknown
Apparent Declination
Unknown
Sunlit
N/A
Visualization observer readout
Local Sidereal Time
09:27:34
Azimuth
Unknown
Elevation
Unknown
Doppler factor
Unknown
Orbital elements
Apogee altitude
579.891 km
Perigee altitude
572.056 km
Semi-major axis
6,954.111 km
Eccentricity
0.00056
Inclination
97.6878°
RAAN
203.2524°
Arg. of periapsis
228.3128°
True anomaly
131.80933°
Mean anomaly
131.7612°
Eccentric anomaly
131.78527°
Mean motion
3.74266 °/min
Orbital period
96.19 mins
BSTAR
0.000045089
Loading maneuver chart data...
Computing Atmospheric mass density...
Loading historical data...
Loading historical data...
Loading historical data...
Loading historical data...
Loading historical data...
Loading historical data...
Loading historical data...

Documentation

Showing up to 5 results
|